INSAT-3DR

Last updated on Wed Jul 09 2025 00:02:21 GMT+0000 (Coordinated Universal Time)

1 41752U 16054A 25189.61151337 -.00000062 00000+0 00000+0 0 9994 2 41752 0.0629 92.3502 0009940 173.2780 315.3169 1.00272617 32378
UTC large
Height (km)
Speed (km/s)
/
Latitude / Longitude
Inclination (degrees)
Orbital Period (minutes)
Azimuth
Elevation
Range (km)
Doppler Factor

Next 0 passes for location: London (51.5072 / 0.1276)

Sorry there are no passes over London.